Retour au catalogue

STARLINK-3593

ActifCommunicationsVLEO
NORAD 51896·PAYLOAD·🇺🇸 United States

Lancé Mar 3, 2022 depuis Cape Canaveral Space Force Station

Loading…

Prochains Passages (prochaines 24 heures)

TLE

FraisSource: CelesTrak SupGP

Époque: Sep 15, 2026, 02:25 UTC

1 51896C 22022AW  26258.10118056 -.00022381  00000+0 -67933-3 0  2588
2 51896  53.1586 215.0880 0001340  87.4495  85.7288 15.33550927    17

Suivez STARLINK-3593 en temps réel avec AllMySat

Download on the App Store